User: anonymous   Login
Location: Palomar Mountain Lodge
(33.3110°N, 116.8495°W)
Time: 10:42:10
(UTC-07:00)
Language:

Cosmos 1400 Rocket - Orbit

View from above orbital plane
View from above orbital plane
View from above satellite
View from above satellite

Ground track
Ground track

The orbit data is extracted from the following two-line orbital elements,

1 13403U 82079B   19078.60848053 -.00000189 +00000-0 -14046-4 0  9995
2 13403 081.1661 255.5634 0032571 328.8427 031.0865 15.06968344992940
Epoch (UTC): 19 March 2019 14:36:12
Eccentricity: 0.0032571
inclination: 81.1661°
perigee height: 523 km
apogee height: 568 km
right ascension of ascending node: 255.5634°
argument of perigee: 328.8427°
revolutions per day: 15.06968344
mean anomaly at epoch: 31.0865°
orbit number at epoch: 99294

The dashed part of the orbit path shows where the satellite is in the earth's shadow,  

DLR